| time (UTC) | temp C | wind direction | speed KPH | gust KPH | rain 1hr cm | rain 24hr cm | rain mn cm | humidity % | barometer mb |
| 20260507231247 | 13 | 37 | 1.6 | 1.6 | 0.00 | 0.00 | 0.00 | 41 | 1013.4 |
| 20260507230743 | 13 | 309 | 1.6 | 1.6 | 0.00 | 0.00 | 0.00 | 43 | 1013.2 |
| 20260507230241 | 13 | 35 | 3.2 | 4.8 | 0.00 | 0.00 | 0.00 | 42 | 1013.3 |
| 20260507225740 | 13 | 15 | 3.2 | 4.8 | 0.00 | 0.00 | 0.00 | 43 | 1013.2 |
| 20260507225237 | 13 | 37 | 1.6 | 1.6 | 0.00 | 0.00 | 0.00 | 42 | 1013.0 |
| 20260507224733 | 13 | 39 | 0.0 | 1.6 | 0.00 | 0.00 | 0.00 | 42 | 1013.1 |
| 20260507224230 | 13 | 7 | 0.0 | 0.0 | 0.00 | 0.00 | 0.00 | 41 | 1013.2 |
| 20260507223726 | 13 | 10 | 3.2 | 6.4 | 0.00 | 0.00 | 0.00 | 42 | 1013.1 |
| 20260507223223 | 13 | 58 | 3.2 | 4.8 | 0.00 | 0.00 | 0.00 | 42 | 1013.0 |
| 20260507222719 | 13 | 338 | 0.0 | 1.6 | 0.00 | 0.00 | 0.00 | 42 | 1013.0 |
| 20260507222216 | 13 | 164 | 1.6 | 3.2 | 0.00 | 0.00 | 0.00 | 41 | 1013.1 |
| 20260507221713 | 14 | 19 | 1.6 | 4.8 | 0.00 | 0.00 | 0.00 | 39 | 1012.9 |
| 20260507221209 | 14 | 339 | 1.6 | 3.2 | 0.00 | 0.00 | 0.00 | 40 | 1012.9 |
| 20260507220706 | 15 | 352 | 0.0 | 0.0 | 0.00 | 0.00 | 0.00 | 38 | 1012.8 |
| 20260507220204 | 15 | 212 | 3.2 | 3.2 | 0.00 | 0.00 | 0.00 | 39 | 1012.7 |
| 20260507215659 | 15 | 42 | 4.8 | 6.4 | 0.00 | 0.00 | 0.00 | 36 | 1012.7 |
| 20260507215157 | 15 | 319 | 4.8 | 4.8 | 0.00 | 0.00 | 0.00 | 38 | 1012.7 |
| 20260507214654 | 15 | 284 | 6.4 | 6.4 | 0.00 | 0.00 | 0.00 | 37 | 1012.7 |
| 20260507214151 | 15 | 309 | 4.8 | 6.4 | 0.00 | 0.00 | 0.00 | 38 | 1012.7 |
| 20260507213646 | 15 | 272 | 1.6 | 3.2 | 0.00 | 0.00 | 0.00 | 41 | 1012.5 |
| 20260507213144 | 15 | 34 | 0.0 | 0.0 | 0.00 | 0.00 | 0.00 | 36 | 1012.5 |
| 20260507212640 | 15 | 222 | 9.7 | 12.9 | 0.00 | 0.00 | 0.00 | 35 | 1012.6 |
| 20260507212137 | 15 | 230 | 8.0 | 9.7 | 0.00 | 0.00 | 0.00 | 38 | 1012.7 |
| 20260507211634 | 15 | 342 | 1.6 | 1.6 | 0.00 | 0.00 | 0.00 | 37 | 1012.6 |
| 20260507211129 | 15 | 24 | 6.4 | 6.4 | 0.00 | 0.00 | 0.00 | 38 | 1012.5 |
| 20260507210628 | 15 | 274 | 3.2 | 3.2 | 0.00 | 0.00 | 0.00 | 39 | 1012.5 |
| 20260507210124 | 15 | 174 | 8.0 | 11.3 | 0.00 | 0.00 | 0.00 | 37 | 1012.3 |
| 20260507205621 | 15 | 353 | 1.6 | 1.6 | 0.00 | 0.00 | 0.00 | 41 | 1012.4 |
| 20260507205117 | 15 | 332 | 1.6 | 3.2 | 0.00 | 0.00 | 0.00 | 41 | 1012.4 |
| 20260507204613 | 15 | 7 | 1.6 | 3.2 | 0.00 | 0.00 | 0.00 | 37 | 1012.3 |
| 20260507204111 | 15 | 357 | 1.6 | 3.2 | 0.00 | 0.00 | 0.00 | 37 | 1012.4 |
| 20260507203609 | 15 | 209 | 3.2 | 3.2 | 0.00 | 0.00 | 0.00 | 39 | 1012.4 |
| 20260507203106 | 15 | 50 | 1.6 | 4.8 | 0.00 | 0.00 | 0.00 | 40 | 1012.4 |
| 20260507202601 | 15 | 234 | 4.8 | 6.4 | 0.00 | 0.00 | 0.00 | 37 | 1012.5 |
| 20260507202057 | 15 | 50 | 4.8 | 4.8 | 0.00 | 0.00 | 0.00 | 41 | 1012.4 |
| 20260507201553 | 15 | 4 | 0.0 | 1.6 | 0.00 | 0.00 | 0.00 | 40 | 1012.5 |
| 20260507201050 | 15 | 302 | 3.2 | 3.2 | 0.00 | 0.00 | 0.00 | 39 | 1012.4 |
| 20260507200545 | 15 | 28 | 3.2 | 4.8 | 0.00 | 0.00 | 0.00 | 44 | 1012.6 |
| 20260507200042 | 15 | 170 | 4.8 | 4.8 | 0.00 | 0.00 | 0.00 | 41 | 1012.6 |
| 20260507195539 | 15 | 44 | 0.0 | 0.0 | 0.00 | 0.00 | 0.00 | 43 | 1012.9 |
| 20260507195037 | 16 | 357 | 3.2 | 6.4 | 0.00 | 0.00 | 0.00 | 38 | 1012.7 |
| 20260507194533 | 16 | 2 | 0.0 | 0.0 | 0.00 | 0.00 | 0.00 | 40 | 1012.6 |
| 20260507194029 | 16 | 66 | 8.0 | 12.9 | 0.00 | 0.00 | 0.00 | 38 | 1012.7 |
| 20260507193526 | 15 | 22 | 3.2 | 3.2 | 0.00 | 0.00 | 0.00 | 46 | 1012.8 |
| 20260507193023 | 15 | 345 | 1.6 | 1.6 | 0.00 | 0.00 | 0.00 | 40 | 1012.8 |
| 20260507192519 | 15 | 2 | 1.6 | 1.6 | 0.00 | 0.00 | 0.00 | 40 | 1012.7 |
| 20260507192016 | 16 | 338 | 6.4 | 9.7 | 0.00 | 0.00 | 0.00 | 41 | 1012.7 |
| 20260507191511 | 15 | 335 | 1.6 | 4.8 | 0.00 | 0.00 | 0.00 | 40 | 1012.8 |
| 20260507191009 | 15 | 165 | 3.2 | 4.8 | 0.00 | 0.00 | 0.00 | 42 | 1012.7 |
| 20260507190506 | 16 | 355 | 6.4 | 6.4 | 0.00 | 0.00 | 0.00 | 41 | 1012.8 |
| 20260507190006 | 15 | 241 | 0.0 | 1.6 | 0.00 | 0.00 | 0.00 | 46 | 1012.9 |
| 20260507185502 | 16 | 355 | 1.6 | 3.2 | 0.00 | 0.00 | 0.00 | 44 | 1013.0 |
| 20260507184958 | 15 | 258 | 4.8 | 4.8 | 0.00 | 0.00 | 0.00 | 41 | 1013.1 |
| 20260507184457 | 15 | 303 | 4.8 | 6.4 | 0.00 | 0.00 | 0.00 | 41 | 1013.1 |
| 20260507183954 | 14 | 217 | 8.0 | 11.3 | 0.00 | 0.00 | 0.00 | 42 | 1013.3 |
| 20260507183450 | 15 | 170 | 8.0 | 12.9 | 0.00 | 0.00 | 0.00 | 43 | 1013.2 |
| 20260507182948 | 15 | 93 | 1.6 | 3.2 | 0.00 | 0.00 | 0.00 | 42 | 1013.3 |
| 20260507182444 | 15 | 355 | 1.6 | 3.2 | 0.00 | 0.00 | 0.00 | 42 | 1013.2 |
| 20260507181939 | 15 | 157 | 6.4 | 9.7 | 0.00 | 0.00 | 0.00 | 43 | 1013.1 |
| 20260507181436 | 15 | 34 | 3.2 | 3.2 | 0.00 | 0.00 | 0.00 | 44 | 1013.1 |
| 20260507180933 | 15 | 103 | 6.4 | 6.4 | 0.00 | 0.00 | 0.00 | 43 | 1013.1 |
| 20260507180430 | 16 | 184 | 9.7 | 14.5 | 0.00 | 0.00 | 0.00 | 46 | 1013.2 |
| 20260507175926 | 16 | 78 | 3.2 | 3.2 | 0.00 | 0.00 | 0.00 | 42 | 1013.2 |
| 20260507175423 | 15 | 177 | 4.8 | 4.8 | 0.00 | 0.00 | 0.00 | 51 | 1013.5 |
| 20260507174920 | 16 | 236 | 4.8 | 6.4 | 0.00 | 0.00 | 0.00 | 41 | 1013.4 |
| 20260507174417 | 15 | 3 | 6.4 | 6.4 | 0.00 | 0.00 | 0.00 | 44 | 1013.3 |
| 20260507173915 | 15 | 322 | 1.6 | 3.2 | 0.00 | 0.00 | 0.00 | 44 | 1013.5 |
| 20260507173412 | 15 | 150 | 3.2 | 4.8 | 0.00 | 0.00 | 0.00 | 43 | 1013.6 |
| 20260507172908 | 15 | 237 | 6.4 | 6.4 | 0.00 | 0.00 | 0.00 | 43 | 1013.5 |
| 20260507172405 | 14 | 249 | 4.8 | 4.8 | 0.00 | 0.00 | 0.00 | 43 | 1013.5 |
| 20260507171901 | 13 | 190 | 4.8 | 6.4 | 0.00 | 0.00 | 0.00 | 45 | 1013.9 |
| 20260507171358 | 13 | 173 | 6.4 | 6.4 | 0.00 | 0.00 | 0.00 | 47 | 1013.9 |
| 20260507170855 | 14 | 1 | 1.6 | 4.8 | 0.00 | 0.00 | 0.00 | 42 | 1014.0 |
| 20260507170351 | 15 | 194 | 11.3 | 12.9 | 0.00 | 0.00 | 0.00 | 44 | 1014.0 |
| 20260507165847 | 13 | 240 | 4.8 | 4.8 | 0.00 | 0.00 | 0.00 | 49 | 1014.1 |
| 20260507165343 | 13 | 179 | 4.8 | 6.4 | 0.00 | 0.00 | 0.00 | 45 | 1014.1 |
| 20260507164840 | 14 | 138 | 3.2 | 9.7 | 0.00 | 0.00 | 0.00 | 43 | 1013.9 |
| 20260507164337 | 13 | 140 | 1.6 | 3.2 | 0.00 | 0.00 | 0.00 | 43 | 1013.9 |
| 20260507163834 | 13 | 186 | 3.2 | 4.8 | 0.00 | 0.00 | 0.00 | 45 | 1014.3 |
| 20260507163331 | 13 | 317 | 0.0 | 0.0 | 0.00 | 0.00 | 0.00 | 47 | 1014.2 |
| 20260507162827 | 14 | 123 | 3.2 | 4.8 | 0.00 | 0.00 | 0.00 | 46 | 1014.2 |
| 20260507162323 | 13 | 185 | 6.4 | 9.7 | 0.00 | 0.00 | 0.00 | 42 | 1014.2 |
| 20260507161820 | 15 | 358 | 3.2 | 6.4 | 0.00 | 0.00 | 0.00 | 40 | 1014.3 |
| 20260507161317 | 15 | 261 | 3.2 | 3.2 | 0.00 | 0.00 | 0.00 | 47 | 1014.3 |
| 20260507160813 | 14 | 52 | 0.0 | 1.6 | 0.00 | 0.00 | 0.00 | 44 | 1014.3 |
| 20260507160309 | 13 | 42 | 9.7 | 12.9 | 0.00 | 0.00 | 0.00 | 50 | 1014.4 |
| 20260507155806 | 13 | 347 | 6.4 | 6.4 | 0.00 | 0.00 | 0.00 | 51 | 1014.5 |
| 20260507155305 | 15 | 30 | 1.6 | 1.6 | 0.00 | 0.00 | 0.00 | 44 | 1014.6 |
| 20260507154758 | 14 | 90 | 1.6 | 1.6 | 0.00 | 0.00 | 0.00 | 50 | 1014.7 |
| 20260507154256 | 13 | 31 | 3.2 | 3.2 | 0.00 | 0.00 | 0.00 | 48 | 1014.6 |
| 20260507153752 | 14 | 7 | 1.6 | 1.6 | 0.00 | 0.00 | 0.00 | 43 | 1014.7 |
| 20260507153249 | 13 | 193 | 6.4 | 9.7 | 0.00 | 0.00 | 0.00 | 46 | 1014.7 |
| 20260507152745 | 13 | 222 | 3.2 | 4.8 | 0.00 | 0.00 | 0.00 | 44 | 1014.7 |
| 20260507152242 | 13 | 286 | 1.6 | 3.2 | 0.00 | 0.00 | 0.00 | 45 | 1015.0 |
| 20260507151738 | 12 | 217 | 3.2 | 6.4 | 0.00 | 0.00 | 0.00 | 46 | 1015.2 |
| 20260507151234 | 13 | 188 | 8.0 | 9.7 | 0.00 | 0.00 | 0.00 | 50 | 1015.0 |
| 20260507150731 | 13 | 30 | 1.6 | 3.2 | 0.00 | 0.00 | 0.00 | 47 | 1015.1 |
| 20260507150228 | 12 | 68 | 0.0 | 0.0 | 0.00 | 0.00 | 0.00 | 49 | 1015.1 |
| 20260507145724 | 12 | 174 | 8.0 | 11.3 | 0.00 | 0.00 | 0.00 | 50 | 1015.3 |
| 20260507145221 | 11 | 192 | 3.2 | 3.2 | 0.00 | 0.00 | 0.00 | 50 | 1015.5 |
| 20260507144718 | 12 | 158 | 3.2 | 4.8 | 0.00 | 0.00 | 0.00 | 50 | 1015.5 |
| 20260507144216 | 12 | 169 | 4.8 | 6.4 | 0.00 | 0.00 | 0.00 | 50 | 1015.4 |
| 20260507143712 | 12 | 223 | 3.2 | 4.8 | 0.00 | 0.00 | 0.00 | 55 | 1015.5 |
| 20260507143209 | 12 | 190 | 6.4 | 9.7 | 0.00 | 0.00 | 0.00 | 58 | 1015.7 |
| 20260507142705 | 12 | 189 | 4.8 | 6.4 | 0.00 | 0.00 | 0.00 | 54 | 1015.6 |
| 20260507142202 | 12 | 186 | 3.2 | 4.8 | 0.00 | 0.00 | 0.00 | 54 | 1015.6 |
| 20260507141658 | 12 | 192 | 3.2 | 4.8 | 0.00 | 0.00 | 0.00 | 57 | 1015.8 |
| 20260507141155 | 12 | 204 | 11.3 | 12.9 | 0.00 | 0.00 | 0.00 | 60 | 1015.8 |
| 20260507140651 | 12 | 216 | 4.8 | 4.8 | 0.00 | 0.00 | 0.00 | 61 | 1015.9 |
| 20260507140149 | 11 | 196 | 3.2 | 3.2 | 0.00 | 0.00 | 0.00 | 58 | 1015.8 |
| 20260507135645 | 12 | 160 | 9.7 | 11.3 | 0.00 | 0.00 | 0.00 | 60 | 1016.1 |
| 20260507135143 | 11 | 177 | 3.2 | 4.8 | 0.00 | 0.00 | 0.00 | 64 | 1015.9 |
| 20260507134639 | 11 | 169 | 1.6 | 1.6 | 0.00 | 0.00 | 0.00 | 60 | 1016.3 |
| 20260507134136 | 11 | 197 | 4.8 | 4.8 | 0.00 | 0.00 | 0.00 | 62 | 1016.0 |
| 20260507133631 | 11 | 187 | 3.2 | 4.8 | 0.00 | 0.00 | 0.00 | 60 | 1016.1 |
| 20260507133129 | 11 | 196 | 8.0 | 11.3 | 0.00 | 0.00 | 0.00 | 61 | 1016.0 |
| 20260507132626 | 10 | 276 | 4.8 | 4.8 | 0.00 | 0.00 | 0.00 | 62 | 1016.2 |
| 20260507132122 | 10 | 193 | 6.4 | 6.4 | 0.00 | 0.00 | 0.00 | 63 | 1016.0 |
| 20260507131619 | 10 | 182 | 8.0 | 9.7 | 0.00 | 0.00 | 0.00 | 62 | 1016.2 |
| 20260507131117 | 10 | 205 | 3.2 | 3.2 | 0.00 | 0.00 | 0.00 | 67 | 1016.0 |
| 20260507130613 | 10 | 173 | 4.8 | 6.4 | 0.00 | 0.00 | 0.00 | 69 | 1016.1 |
| 20260507130111 | 10 | 177 | 8.0 | 9.7 | 0.00 | 0.00 | 0.00 | 66 | 1016.1 |
| 20260507125610 | 9 | 170 | 6.4 | 6.4 | 0.00 | 0.00 | 0.00 | 68 | 1016.0 |
| 20260507125107 | 8 | 203 | 4.8 | 4.8 | 0.00 | 0.00 | 0.00 | 72 | 1016.2 |
| 20260507124603 | 8 | 172 | 3.2 | 4.8 | 0.00 | 0.00 | 0.00 | 75 | 1016.3 |
| 20260507124101 | 8 | 99 | 0.0 | 0.0 | 0.00 | 0.00 | 0.00 | 78 | 1016.1 |
| 20260507123559 | 8 | 172 | 3.2 | 4.8 | 0.00 | 0.00 | 0.00 | 77 | 1016.2 |
| 20260507123055 | 7 | 65 | 1.6 | 1.6 | 0.00 | 0.00 | 0.00 | 80 | 1016.3 |
| 20260507122551 | 7 | 42 | 1.6 | 3.2 | 0.00 | 0.00 | 0.00 | 80 | 1016.5 |
| 20260507122047 | 7 | 38 | 1.6 | 1.6 | 0.00 | 0.00 | 0.00 | 82 | 1016.2 |
| 20260507121542 | 7 | 53 | 0.0 | 0.0 | 0.00 | 0.00 | 0.00 | 82 | 1016.3 |
| 20260507121039 | 6 | 36 | 0.0 | 0.0 | 0.00 | 0.00 | 0.00 | 85 | 1016.3 |
| 20260507120535 | 6 | 86 | 1.6 | 1.6 | 0.00 | 0.00 | 0.00 | 85 | 1016.3 |
| 20260507120032 | 6 | 67 | 0.0 | 0.0 | 0.00 | 0.00 | 0.00 | 84 | 1016.4 |
| 20260507115528 | 6 | 22 | 0.0 | 0.0 | 0.00 | 0.00 | 0.00 | 87 | 1016.4 |
| 20260507115024 | 6 | 22 | 0.0 | 0.0 | 0.00 | 0.00 | 0.00 | 93 | 1016.4 |
| 20260507114520 | 5 | 22 | 0.0 | 0.0 | 0.00 | 0.00 | 0.00 | 96 | 1016.4 |
| 20260507114018 | 5 | 22 | 0.0 | 0.0 | 0.00 | 0.00 | 0.00 | 96 | 1016.2 |
| 20260507113515 | 5 | 22 | 0.0 | 0.0 | 0.00 | 0.00 | 0.00 | 97 | 1016.2 |
| 20260507113012 | 3 | 22 | 0.0 | 0.0 | 0.00 | 0.00 | 0.00 | 98 | 1016.2 |
| 20260507112509 | 2 | 23 | 0.0 | 0.0 | 0.00 | 0.00 | 0.00 | 98 | 1016.1 |
| 20260507112006 | 2 | 23 | 0.0 | 0.0 | 0.00 | 0.00 | 0.00 | 98 | 1016.3 |
| 20260507111504 | 2 | 11 | 0.0 | 0.0 | 0.00 | 0.00 | 0.00 | 97 | 1016.1 |
| 20260507110959 | 2 | 10 | 0.0 | 0.0 | 0.00 | 0.00 | 0.00 | 98 | 1016.0 |
| 20260507110456 | 1 | 10 | 0.0 | 0.0 | 0.00 | 0.00 | 0.00 | 98 | 1016.0 |
| 20260507105952 | 1 | 10 | 0.0 | 0.0 | 0.00 | 0.00 | 0.00 | 98 | 1015.9 |
| 20260507105449 | 0 | 10 | 0.0 | 0.0 | 0.00 | 0.00 | 0.00 | 98 | 1015.9 |
| 20260507104946 | 0 | 10 | 0.0 | 0.0 | 0.00 | 0.00 | 0.00 | 98 | 1015.9 |
| 20260507104443 | 0 | 10 | 0.0 | 0.0 | 0.00 | 0.00 | 0.00 | 98 | 1016.0 |
| 20260507103938 | 0 | 10 | 0.0 | 0.0 | 0.00 | 0.00 | 0.00 | 98 | 1015.8 |
| 20260507103436 | 0 | 10 | 0.0 | 0.0 | 0.00 | 0.00 | 0.00 | 97 | 1016.0 |
| 20260507102932 | 0 | 10 | 0.0 | 0.0 | 0.00 | 0.00 | 0.00 | 97 | 1015.7 |
| 20260507102428 | 0 | 10 | 0.0 | 0.0 | 0.00 | 0.00 | 0.00 | 97 | 1016.0 |
| 20260507101925 | 0 | 10 | 0.0 | 0.0 | 0.00 | 0.00 | 0.00 | 97 | 1016.0 |
| 20260507101420 | 0 | 10 | 0.0 | 0.0 | 0.00 | 0.00 | 0.00 | 97 | 1015.6 |
| 20260507100917 | 0 | 10 | 0.0 | 0.0 | 0.00 | 0.00 | 0.00 | 97 | 1015.8 |
| 20260507100414 | 0 | 10 | 0.0 | 0.0 | 0.00 | 0.00 | 0.00 | 97 | 1015.6 |
| 20260507095913 | 0 | 10 | 0.0 | 0.0 | 0.00 | 0.00 | 0.00 | 97 | 1015.5 |
| 20260507095409 | 0 | 10 | 0.0 | 0.0 | 0.00 | 0.00 | 0.00 | 97 | 1015.7 |
| 20260507094907 | 0 | 10 | 0.0 | 0.0 | 0.00 | 0.00 | 0.00 | 97 | 1015.8 |
| 20260507094403 | 0 | 10 | 0.0 | 0.0 | 0.00 | 0.00 | 0.00 | 97 | 1015.8 |
| 20260507093900 | 0 | 10 | 0.0 | 0.0 | 0.00 | 0.00 | 0.00 | 97 | 1015.8 |
| 20260507093358 | 0 | 10 | 0.0 | 0.0 | 0.00 | 0.00 | 0.00 | 97 | 1015.8 |
| 20260507092856 | 1 | 10 | 0.0 | 0.0 | 0.00 | 0.00 | 0.00 | 97 | 1015.9 |
| 20260507092352 | 1 | 10 | 0.0 | 0.0 | 0.00 | 0.00 | 0.00 | 97 | 1015.9 |
| 20260507091848 | 1 | 10 | 0.0 | 0.0 | 0.00 | 0.00 | 0.00 | 97 | 1015.8 |
| 20260507091345 | 1 | 10 | 0.0 | 0.0 | 0.00 | 0.00 | 0.00 | 97 | 1015.8 |
| 20260507090841 | 1 | 10 | 0.0 | 0.0 | 0.00 | 0.00 | 0.00 | 97 | 1015.9 |
| 20260507090337 | 1 | 10 | 0.0 | 0.0 | 0.00 | 0.00 | 0.00 | 96 | 1015.9 |
| 20260507085834 | 1 | 10 | 0.0 | 0.0 | 0.00 | 0.00 | 0.00 | 96 | 1015.8 |
| 20260507085331 | 1 | 13 | 0.0 | 0.0 | 0.00 | 0.00 | 0.00 | 96 | 1015.8 |
| 20260507084828 | 1 | 13 | 0.0 | 0.0 | 0.00 | 0.00 | 0.00 | 96 | 1015.9 |
| 20260507084325 | 1 | 13 | 0.0 | 0.0 | 0.00 | 0.00 | 0.00 | 96 | 1016.0 |
| 20260507083822 | 1 | 13 | 0.0 | 0.0 | 0.00 | 0.00 | 0.00 | 96 | 1015.8 |
| 20260507083318 | 1 | 13 | 0.0 | 0.0 | 0.00 | 0.00 | 0.00 | 96 | 1015.9 |
| 20260507082815 | 1 | 13 | 0.0 | 0.0 | 0.00 | 0.00 | 0.00 | 96 | 1015.8 |
| 20260507082310 | 1 | 13 | 0.0 | 0.0 | 0.00 | 0.00 | 0.00 | 96 | 1015.8 |
| 20260507081808 | 1 | 13 | 0.0 | 0.0 | 0.00 | 0.00 | 0.00 | 96 | 1016.0 |
| 20260507081303 | 1 | 7 | 0.0 | 0.0 | 0.00 | 0.00 | 0.00 | 95 | 1015.7 |
| 20260507080800 | 2 | 6 | 0.0 | 0.0 | 0.00 | 0.00 | 0.00 | 95 | 1015.7 |
| 20260507080257 | 2 | 9 | 0.0 | 0.0 | 0.00 | 0.00 | 0.00 | 95 | 1015.9 |
| 20260507075752 | 2 | 10 | 0.0 | 0.0 | 0.00 | 0.00 | 0.00 | 95 | 1015.8 |
| 20260507075248 | 2 | 10 | 0.0 | 0.0 | 0.00 | 0.00 | 0.00 | 95 | 1015.7 |
| 20260507074745 | 2 | 11 | 0.0 | 0.0 | 0.00 | 0.00 | 0.00 | 95 | 1015.8 |
| 20260507074243 | 2 | 344 | 0.0 | 0.0 | 0.00 | 0.00 | 0.00 | 94 | 1015.8 |
| 20260507073739 | 2 | 351 | 0.0 | 0.0 | 0.00 | 0.00 | 0.00 | 94 | 1015.8 |
| 20260507073236 | 2 | 1 | 0.0 | 0.0 | 0.00 | 0.00 | 0.00 | 94 | 1016.1 |
| 20260507072734 | 2 | 1 | 0.0 | 0.0 | 0.00 | 0.00 | 0.00 | 94 | 1015.9 |
| 20260507072231 | 2 | 1 | 0.0 | 0.0 | 0.00 | 0.00 | 0.00 | 93 | 1015.8 |
| 20260507071728 | 2 | 1 | 0.0 | 0.0 | 0.00 | 0.00 | 0.00 | 93 | 1016.0 |
| 20260507071225 | 3 | 1 | 0.0 | 0.0 | 0.00 | 0.00 | 0.00 | 93 | 1016.0 |
| 20260507070722 | 3 | 1 | 0.0 | 0.0 | 0.00 | 0.00 | 0.00 | 92 | 1016.0 |
| 20260507070219 | 3 | 1 | 0.0 | 0.0 | 0.00 | 0.00 | 0.00 | 92 | 1015.8 |
| 20260507065715 | 3 | 1 | 0.0 | 0.0 | 0.00 | 0.00 | 0.00 | 92 | 1015.8 |
| 20260507065212 | 3 | 1 | 0.0 | 0.0 | 0.00 | 0.00 | 0.00 | 91 | 1016.0 |
| 20260507064709 | 3 | 1 | 0.0 | 0.0 | 0.00 | 0.00 | 0.00 | 91 | 1015.8 |
| 20260507064208 | 4 | 1 | 0.0 | 0.0 | 0.00 | 0.00 | 0.00 | 90 | 1016.0 |
| 20260507063705 | 5 | 1 | 0.0 | 0.0 | 0.00 | 0.00 | 0.00 | 89 | 1016.0 |
| 20260507063201 | 5 | 1 | 0.0 | 0.0 | 0.00 | 0.00 | 0.00 | 88 | 1015.9 |
| 20260507062659 | 5 | 1 | 0.0 | 0.0 | 0.00 | 0.00 | 0.00 | 87 | 1015.9 |
| 20260507062156 | 5 | 0 | 0.0 | 0.0 | 0.00 | 0.00 | 0.00 | 86 | 1016.0 |
| 20260507061654 | 6 | 0 | 0.0 | 0.0 | 0.00 | 0.00 | 0.00 | 85 | 1016.1 |
| 20260507061152 | 6 | 0 | 0.0 | 0.0 | 0.00 | 0.00 | 0.00 | 85 | 1016.1 |
| 20260507060649 | 6 | 0 | 0.0 | 0.0 | 0.00 | 0.00 | 0.00 | 84 | 1015.9 |
| 20260507060146 | 6 | 0 | 0.0 | 0.0 | 0.00 | 0.00 | 0.00 | 82 | 1016.2 |
| 20260507055641 | 6 | 0 | 0.0 | 0.0 | 0.00 | 0.00 | 0.00 | 82 | 1016.1 |
| 20260507055138 | 6 | 0 | 0.0 | 0.0 | 0.00 | 0.00 | 0.00 | 81 | 1016.2 |
| 20260507054633 | 7 | 0 | 0.0 | 0.0 | 0.00 | 0.00 | 0.00 | 80 | 1016.0 |
| 20260507054131 | 7 | 0 | 0.0 | 0.0 | 0.00 | 0.00 | 0.00 | 77 | 1016.1 |
| 20260507053628 | 7 | 0 | 0.0 | 0.0 | 0.00 | 0.00 | 0.00 | 74 | 1016.5 |
| 20260507053126 | 7 | 0 | 0.0 | 0.0 | 0.00 | 0.00 | 0.00 | 72 | 1016.6 |
| 20260507052625 | 7 | 0 | 0.0 | 0.0 | 0.00 | 0.00 | 0.00 | 72 | 1016.6 |
| 20260507052120 | 7 | 0 | 0.0 | 0.0 | 0.00 | 0.00 | 0.00 | 72 | 1016.8 |
| 20260507051618 | 7 | 0 | 0.0 | 0.0 | 0.00 | 0.00 | 0.00 | 72 | 1016.6 |
| 20260507051115 | 7 | 3 | 0.0 | 0.0 | 0.00 | 0.00 | 0.00 | 72 | 1016.6 |
| 20260507050612 | 7 | 3 | 0.0 | 0.0 | 0.00 | 0.00 | 0.00 | 72 | 1016.6 |
| 20260507050109 | 7 | 7 | 0.0 | 0.0 | 0.00 | 0.00 | 0.00 | 68 | 1016.8 |
| 20260507045605 | 7 | 9 | 0.0 | 0.0 | 0.00 | 0.00 | 0.00 | 68 | 1016.7 |
| 20260507045102 | 7 | 1 | 0.0 | 0.0 | 0.00 | 0.00 | 0.00 | 70 | 1016.6 |
| 20260507044559 | 7 | 359 | 0.0 | 0.0 | 0.00 | 0.00 | 0.00 | 72 | 1016.8 |
| 20260507044056 | 7 | 7 | 0.0 | 0.0 | 0.00 | 0.00 | 0.00 | 69 | 1016.7 |
| 20260507043551 | 7 | 7 | 0.0 | 0.0 | 0.00 | 0.00 | 0.00 | 67 | 1016.6 |
| 20260507043049 | 8 | 0 | 1.6 | 1.6 | 0.00 | 0.00 | 0.00 | 67 | 1016.6 |
| 20260507042544 | 8 | 2 | 0.0 | 0.0 | 0.00 | 0.00 | 0.00 | 67 | 1016.7 |
| 20260507042040 | 8 | 7 | 0.0 | 0.0 | 0.00 | 0.00 | 0.00 | 68 | 1016.7 |
| 20260507041538 | 8 | 6 | 0.0 | 0.0 | 0.00 | 0.00 | 0.00 | 68 | 1016.7 |
| 20260507041035 | 8 | 349 | 0.0 | 1.6 | 0.00 | 0.00 | 0.00 | 66 | 1016.7 |
| 20260507040531 | 8 | 6 | 1.6 | 1.6 | 0.00 | 0.00 | 0.00 | 68 | 1016.4 |
| 20260507040027 | 7 | 13 | 0.0 | 0.0 | 0.00 | 1.35 | 1.35 | 75 | 1016.6 |
| 20260507035523 | 7 | 5 | 0.0 | 0.0 | 0.00 | 1.35 | 1.35 | 76 | 1016.6 |
| 20260507035020 | 7 | 8 | 0.0 | 0.0 | 0.00 | 1.35 | 1.35 | 79 | 1016.6 |
| 20260507034517 | 7 | 22 | 0.0 | 0.0 | 0.00 | 1.35 | 1.35 | 80 | 1016.5 |
| 20260507034015 | 7 | 359 | 0.0 | 0.0 | 0.00 | 1.35 | 1.35 | 81 | 1016.3 |
| 20260507033513 | 7 | 359 | 0.0 | 0.0 | 0.00 | 1.35 | 1.35 | 81 | 1016.3 |
| 20260507033010 | 7 | 359 | 0.0 | 0.0 | 0.00 | 1.35 | 1.35 | 80 | 1016.3 |
| 20260507032506 | 7 | 359 | 0.0 | 0.0 | 0.00 | 1.35 | 1.35 | 78 | 1016.2 |
| 20260507032003 | 8 | 359 | 0.0 | 0.0 | 0.00 | 1.35 | 1.35 | 78 | 1016.2 |
| 20260507031459 | 8 | 358 | 0.0 | 0.0 | 0.00 | 1.35 | 1.35 | 74 | 1016.2 |
| 20260507030956 | 8 | 358 | 0.0 | 0.0 | 0.00 | 1.35 | 1.35 | 70 | 1016.4 |
| 20260507030453 | 8 | 358 | 0.0 | 0.0 | 0.00 | 1.35 | 1.35 | 74 | 1016.2 |
| 20260507025950 | 8 | 357 | 0.0 | 0.0 | 0.00 | 1.35 | 1.35 | 73 | 1016.1 |
| 20260507025447 | 8 | 357 | 0.0 | 0.0 | 0.00 | 1.35 | 1.35 | 74 | 1016.1 |
| 20260507024945 | 8 | 357 | 0.0 | 0.0 | 0.00 | 1.35 | 1.35 | 74 | 1016.0 |
| 20260507024442 | 8 | 357 | 0.0 | 0.0 | 0.00 | 1.35 | 1.35 | 73 | 1016.0 |
| 20260507023938 | 8 | 5 | 0.0 | 0.0 | 0.00 | 1.35 | 1.35 | 72 | 1016.0 |
| 20260507023435 | 8 | 5 | 0.0 | 0.0 | 0.00 | 1.35 | 1.35 | 70 | 1016.0 |
| 20260507022932 | 8 | 5 | 0.0 | 0.0 | 0.00 | 1.35 | 1.35 | 69 | 1015.9 |
| 20260507022429 | 8 | 5 | 0.0 | 0.0 | 0.00 | 1.35 | 1.35 | 69 | 1015.8 |
| 20260507021924 | 8 | 5 | 0.0 | 0.0 | 0.00 | 1.35 | 1.35 | 65 | 1015.9 |
| 20260507021420 | 9 | 357 | 0.0 | 0.0 | 0.00 | 1.35 | 1.35 | 64 | 1015.9 |
| 20260507020918 | 9 | 4 | 0.0 | 0.0 | 0.00 | 1.35 | 1.35 | 63 | 1015.7 |
| 20260507020414 | 9 | 8 | 0.0 | 1.6 | 0.00 | 1.35 | 1.35 | 61 | 1015.6 |
| 20260507015911 | 9 | 357 | 0.0 | 0.0 | 0.00 | 1.35 | 1.35 | 65 | 1015.5 |
| 20260507015410 | 9 | 14 | 0.0 | 0.0 | 0.00 | 1.35 | 1.35 | 64 | 1015.5 |
| 20260507014906 | 9 | 357 | 0.0 | 0.0 | 0.00 | 1.35 | 1.35 | 64 | 1015.3 |
| 20260507014403 | 9 | 4 | 1.6 | 1.6 | 0.00 | 1.35 | 1.35 | 63 | 1015.4 |
| 20260507013859 | 9 | 12 | 1.6 | 1.6 | 0.00 | 1.35 | 1.35 | 62 | 1015.3 |
| 20260507013356 | 9 | 8 | 1.6 | 1.6 | 0.00 | 1.35 | 1.35 | 62 | 1015.4 |
| 20260507012854 | 9 | 9 | 1.6 | 3.2 | 0.00 | 1.35 | 1.35 | 63 | 1015.4 |
| 20260507012349 | 10 | 16 | 0.0 | 1.6 | 0.00 | 1.35 | 1.35 | 62 | 1015.6 |
| 20260507011847 | 9 | 0 | 3.2 | 3.2 | 0.00 | 1.35 | 1.35 | 62 | 1015.5 |
| 20260507011344 | 10 | 3 | 3.2 | 3.2 | 0.00 | 1.35 | 1.35 | 63 | 1015.4 |
| 20260507010843 | 10 | 9 | 0.0 | 1.6 | 0.00 | 1.35 | 1.35 | 65 | 1015.6 |
| 20260507010339 | 10 | 20 | 0.0 | 0.0 | 0.00 | 1.35 | 1.35 | 63 | 1015.8 |
| 20260507005837 | 10 | 25 | 0.0 | 0.0 | 0.00 | 1.35 | 1.35 | 62 | 1015.8 |
| 20260507005333 | 10 | 351 | 1.6 | 1.6 | 0.00 | 1.35 | 1.35 | 59 | 1015.9 |
| 20260507004830 | 10 | 8 | 0.0 | 0.0 | 0.00 | 1.35 | 1.35 | 60 | 1015.9 |
| 20260507004327 | 10 | 357 | 1.6 | 1.6 | 0.00 | 1.35 | 1.35 | 59 | 1015.9 |
| 20260507003824 | 10 | 14 | 0.0 | 0.0 | 0.00 | 1.35 | 1.35 | 59 | 1015.8 |
| 20260507003320 | 10 | 11 | 1.6 | 3.2 | 0.00 | 1.35 | 1.35 | 58 | 1015.7 |
| 20260507002815 | 10 | 8 | 0.0 | 0.0 | 0.00 | 1.35 | 1.35 | 58 | 1015.5 |
| 20260507002311 | 10 | 15 | 3.2 | 3.2 | 0.00 | 1.35 | 1.35 | 57 | 1015.5 |
| 20260507001809 | 10 | 17 | 3.2 | 3.2 | 0.00 | 1.35 | 1.35 | 58 | 1015.9 |
| 20260507001306 | 10 | 2 | 0.0 | 0.0 | 0.00 | 1.35 | 1.35 | 59 | 1015.8 |
| 20260507000802 | 10 | 48 | 3.2 | 4.8 | 0.00 | 1.35 | 1.35 | 58 | 1015.5 |
| 20260507000259 | 10 | 2 | 8.0 | 9.7 | 0.00 | 1.35 | 1.35 | 57 | 1015.6 |
| 20260506235754 | 10 | 2 | 1.6 | 1.6 | 0.00 | 1.35 | 1.35 | 57 | 1015.8 |
| 20260506235250 | 11 | 345 | 1.6 | 1.6 | 0.00 | 1.35 | 1.35 | 60 | 1015.4 |
| 20260506234748 | 11 | 1 | 1.6 | 1.6 | 0.00 | 1.35 | 1.35 | 58 | 1015.3 |
| 20260506234245 | 11 | 340 | 1.6 | 3.2 | 0.00 | 1.35 | 1.35 | 58 | 1015.2 |
| 20260506233742 | 11 | 10 | 3.2 | 4.8 | 0.00 | 1.35 | 1.35 | 58 | 1015.2 |
| 20260506233239 | 11 | 330 | 3.2 | 4.8 | 0.00 | 1.35 | 1.35 | 59 | 1015.3 |
| 20260506232735 | 11 | 343 | 3.2 | 3.2 | 0.00 | 1.35 | 1.35 | 60 | 1015.0 |
| 20260506232230 | 11 | 17 | 1.6 | 3.2 | 0.00 | 1.35 | 1.35 | 59 | 1015.1 |
| 20260506231727 | 11 | 4 | 3.2 | 4.8 | 0.00 | 1.35 | 1.35 | 57 | 1015.0 |